Location: Moscow
(55.7500°N, 37.5830°E)
Time: 07:28:18
(UTC+03:00)

Transit 2A - Pass Details

Date: 06 December 2021
Orbit: 591 x 967 km, 66.7° (Epoch: 17 January)

Event Time Altitude Azimuth Distance (km) Brightness Sun altitude
Exits shadow 07:31:46 - 316° (NW) 2,773 8.3 -9.1°
Reaches altitude 10° 07:31:57 10° 317° (NW) 2,707 8.2 -9.1°
Maximum altitude 07:38:23 76° 43° (NE) 1,000 6.6 -8.3°
Drops below altitude 10° 07:44:41 10° 129° (SE) 2,654 10.5 -7.5°
Sets 07:47:10 0° 131° (SE) 3,562 11.5 -7.2°
